Location: Kitt Peak
(31.9639°N, 111.5992°W)
Time: 15:06:32
(UTC-07:00)

SRMSAT - Pass Details

Date: 14 December 2025
Orbit: 846 x 863 km, 20.0° (Epoch: 13 January)

Event Time Altitude Azimuth Distance (km) Brightness Sun altitude
Exits shadow 05:03:56 15° 197° (SSW) 2,149 ? -27.8°
Maximum altitude 05:06:22 18° 168° (SSE) 1,936 ? -27.3°
Drops below altitude 10° 05:10:19 10° 126° (SE) 2,469 ? -26.5°
Sets 05:13:39 0° 108° (ESE) 3,410 ? -25.8°
